Location: El Águila
(10.4167°N, 66.7167°W)
Time: 05:16:19
(UTC+00:00)

Cosmos 1766 - Pass Details

Date: 02 October 2022
Orbit: 512 x 536 km, 82.5° (Epoch: 26 November)

Event Time Altitude Azimuth Distance (km) Brightness Sun altitude
Rises 22:57:21 0° 185° (S) 2,634 6.9 -10.8°
Reaches altitude 10° 22:59:28 10° 185° (S) 1,751 6.0 -11.4°
Maximum altitude 23:03:18 86° 270° (W) 529 3.2 -12.3°
Drops below altitude 10° 23:07:11 10° 3° (N) 1,766 5.9 -13.3°
Sets 23:09:20 0° 4° (N) 2,659 6.8 -13.8°
